Regional Weather Roundup
Issued by NWS Kansas City/Pleasant Hill, MO

Home | Current Version | Previous Version | Text Only | Print | Product List | Glossary On
Versions: 1 2 3 4 5 6 7 8 9 10 11 12 13 14 15 16 17 18 19 20 21 22 23 24 25 26 27 28 29 30 31 32 33 34 35 36 37 38 39 40 41 42 43 44 45 46 47 48 49 50
000
ASUS43 KEAX 291311
RWREAX

WEATHER ROUNDUP FOR EASTERN KANSAS AND NORTHWEST MISSOURI
NATIONAL WEATHER SERVICE KANSAS CITY/PLEASANT HILL MO
800 AM CDT FRI MAY 29 2015

KSZ040-057-103>105-MOZ028-029-037-043-291400-
...KANSAS CITY METROPOLITAN AREA...

CITY           SKY/WX    TMP DP  RH WIND       PRES   REMARKS
K.C. INTL      LGT RAIN  65  63  93 S16       29.94S
K.C. DOWNTOWN  LGT RAIN  67  62  84 S8        29.95F
LEES SUMMIT    LGT RAIN  65  62  90 S8        29.99F
OLATHE - IXD   LGT RAIN  65  64  97 S8        29.99S
OLATHE - OJC   LGT RAIN  65  64  97 S6        29.99S
LAWRENCE       LGT RAIN  66  63  90 SE10      29.97R

$$

MOZ001>008-011>017-020>025-030>033-038>040-044>046-053-054-291400-
...NORTHERN AND CENTRAL MISSOURI...

CITY           SKY/WX    TMP DP  RH WIND       PRES   REMARKS
ST. JOSEPH     CLOUDY    67  64  90 S8        29.95R
MOSBY          LGT RAIN  64  64 100 SE6       29.94F
WARRENSBURG    RAIN      63  63 100 W10G17    30.00S
WHITEMAN AFB   LGT RAIN  66  64  94 W9        30.00S
CLINTON        CLOUDY    66  66 100 W8        30.03R
SEDALIA        LGT RAIN  68  64  87 SW13      30.03R
WARSAW         NOT AVBL
CHILLICOTHE      N/A     66  65  96 S5        29.98R
KIRKSVILLE     PTSUNNY   67  66  97 SW8       29.98S

$$

MOZ041-047>049-056>058-063>065-088>090-097-291400-
...EASTERN AND SOUTHERN MISSOURI...

CITY           SKY/WX    TMP DP  RH WIND       PRES   REMARKS
ST. LOUIS INTL PTSUNNY   76  66  71 S12       30.03S
SPIRIT OF STL  MOSUNNY   74  68  81 SW10G21   30.01S
COLUMBIA       PTSUNNY   68  65  90 S6        30.01R
JEFFERSON CITY PTSUNNY   68  63  84 SE3       30.01R
ROLLA          MOSUNNY   69  63  81 S9        30.02R
OSAGE BEACH    PTSUNNY   66  63  88 CALM      30.02R
SPRINGFIELD    CLOUDY    68  63  84 SW5       30.04R
BRANSON        PTSUNNY   72  64  78 CALM      30.05R
JOPLIN         HVY RAIN  67  66  97 NW7       30.05R FOG
WEST PLAINS    SUNNY     69  63  81 S6        30.08R

$$

IAZ060-094-KSZ022-034>040-054-083-096-NEZ052-066-093-291400-
...KANSAS...SOUTHEAST NEBRASKA AND IOWA...

CITY           SKY/WX    TMP DP  RH WIND       PRES   REMARKS
TOPEKA         CLOUDY    68  65  90 S7        29.96R
MANHATTAN      CLOUDY    65  64  97 S3        29.96S
EMPORIA        LGT RAIN  65  63  93 SE15G22   29.99R
CHANUTE        LGT RAIN  66  65  96 SE7       30.02R
WICHITA        CLOUDY    69  67  93 SE9       29.96S
OMAHA          CLOUDY    67  64  90 S13       29.91R
LINCOLN        CLOUDY    64  60  87 SW10      29.94R
FALLS CITY     CLOUDY    67  65  93 S7        29.93S
LAMONI         CLOUDY    67  63  87 S9        29.97R
DES MOINES     PTSUNNY   66  62  87 S8        29.94R

$$



USA.gov is the U.S. government's official web portal to all federal, state and local government web resources and services.